[[{"header":{"parameterUnit":"m.s-1","parameterCategory":1,"la1":30.2991,"la2":30.254,"lo1":-89.0895,"lo2":-89.0444,"dy":0.0017,"dx":0.0017,"nx":28,"ny":28,"refTime":"2025-03-04T09:00:00:Z","depth":0,"parameterNumber":2,"parameterNumberName":"U-component_of_WINDS"},"data":[0,0,0,0,0,0,0,0,0,0,0,0,0,0,0,0,0,0,0,0,0,0,0,0,0,0,0,0,0,0,0,0,0,0,0,0,0,0,0,0,0,0,0,0,0,0,0,0,0,0,0,0,0,0,0,0,0,0,9.0944,9.0946,0,9.1118,9.112,9.1122,9.101,9.1005,9.1,9.0995,9.1177,9.1186,9.1196,0,0,0,0,0,0,0,0,0,0,0,0,0,9.0519,9.0528,9.0944,9.0946,9.0949,9.1118,9.112,9.1122,9.1011,9.1005,9.0999,9.0993,9.1173,9.1185,9.1197,0,0,0,0,0,0,0,0,0,0,0,0,0,9.07,9.053,9.0944,9.0913,9.0912,9.1117,9.112,9.1123,9.1013,9.1005,9.0997,9.099,9.117,9.1184,9.1198,9.1444,0,0,9.1242,9.1249,0,0,0,0,0,0,0,0,9.069,9.0715,9.0916,9.0916,9.0915,9.1034,9.1037,9.1231,9.1014,9.0975,9.0995,9.0986,9.1136,9.1153,9.1202,9.1452,9.146,9.1244,9.1253,9.1259,9.1263,0,0,0,0,0,0,0,9.0677,9.0707,9.1013,9.0919,9.0918,9.0892,9.0909,9.1073,9.1097,9.0977,9.097,9.0992,9.1134,9.1189,9.1206,9.1463,9.1243,9.1256,9.1265,9.1271,9.1922,9.1931,0,0,0,0,0,0,9.0667,9.0698,9.1007,9.1018,9.0781,9.0906,9.0925,9.1004,9.1095,9.1101,9.0998,9.0986,9.1168,9.1189,9.1212,9.1505,9.1259,9.1272,9.1281,9.1914,9.1924,9.1934,0,0,0,0,0,0,9.0658,9.0695,9.1,9.0856,9.0893,9.0922,9.1011,9.1012,9.1066,9.111,9.1114,9.1049,9.1162,9.1191,9.1387,9.1509,9.1279,9.1292,9.1904,9.1917,9.1929,9.2093,0,0,0,0,0,0,9.0646,9.0693,9.0786,9.0859,9.0901,9.1172,9.1019,9.1021,9.1091,9.1076,9.1159,9.1166,9.1159,9.1366,9.1401,9.1525,9.1303,9.1893,9.191,9.1925,9.2077,9.211,9.2138,0,0,0,0,0,9.0632,9.0826,9.0791,9.0829,9.1017,9.1179,9.1203,9.119,9.1101,9.1195,9.1224,9.1163,9.1491,9.1386,9.1426,9.1556,9.1885,9.1905,9.1924,9.2063,9.2103,9.2138,0,0,0,0,0,0,9.0768,9.0835,9.0797,9.1021,9.1095,9.116,9.1278,9.1233,9.1335,9.1317,9.1298,9.1318,9.1521,9.1558,9.1441,9.1798,9.1674,9.1702,9.1767,9.1805,9.1836,9.1822,9.1315,0,0,0,0,0,9.0824,9.0949,9.1001,9.1194,9.1232,9.1249,9.1319,9.1302,9.1379,9.141,9.1453,9.153,9.165,9.173,9.1843,9.2082,9.2098,9.2191,9.2222,9.2247,9.2271,9.2399,9.2441,9.1997,9.1997,9.1997,0,0,9.0942,9.0994,9.1074,9.1222,9.1278,9.1408,9.1276,9.142,9.1516,9.1432,9.1618,9.1653,9.1738,9.1956,9.2054,9.1993,9.2397,9.2272,9.2291,9.2302,9.2424,9.2466,9.2503,9.201,9.2008,9.2006,0,0,9.1221,9.1274,9.1439,9.1497,9.1582,9.1592,9.1632,9.1704,9.1723,9.191,9.1849,9.1964,9.2172,9.2235,9.2294,9.2598,9.2546,9.2636,9.2796,9.2922,9.2957,9.2987,9.3095,9.3134,9.266,9.266,9.2661,0,9.1357,9.1549,9.153,9.1678,9.1745,9.1674,9.1842,9.19,9.2018,9.2067,9.1996,9.2255,9.2307,9.2538,9.2613,9.2663,9.2708,9.2626,9.2953,9.2984,9.3012,9.3115,9.3155,9.2671,9.2669,9.2668,9.2667,0,9.1711,9.1846,9.197,9.2084,9.2166,9.2323,9.2329,9.2414,9.239,9.2408,9.2598,9.2659,9.2782,9.2836,9.2816,9.3065,9.3024,9.2955,9.2829,9.3065,9.3161,9.32,9.2685,9.2682,9.2679,9.2676,0,0,9.2082,9.2183,9.2229,9.228,9.2368,9.2473,9.2627,9.2747,9.282,9.2905,9.3033,9.3211,9.3146,9.3213,9.3199,9.331,9.3545,9.3226,9.3227,9.3282,9.3823,9.3874,9.392,9.3512,9.3519,9.3525,9.3816,0,9.2366,9.2633,9.2621,9.2872,9.2996,9.293,9.3065,9.3134,9.3155,9.3264,9.3288,9.3413,9.3319,9.3359,9.3465,9.3494,9.3654,9.3473,9.3632,9.3638,9.3611,9.397,9.4025,9.4296,9.3853,9.3859,9.3864,0,9.2733,9.2828,9.3091,9.3161,9.3213,9.3334,9.3442,9.3547,9.3625,9.3632,9.3708,9.3675,9.3832,9.3703,9.3919,9.3797,9.3861,9.3886,9.3896,9.3909,9.3764,9.3992,9.4383,9.4423,9.3923,9.3918,9.3914,0,9.2976,9.317,9.3352,9.3398,9.3484,9.357,9.3611,9.3681,9.3753,9.3849,9.3895,9.4009,9.4071,9.416,9.4159,9.4065,9.4378,9.4249,9.4388,9.4388,9.4456,9.4451,9.4861,9.45,9.4499,9.4498,9.4498,0,9.3294,9.3457,9.3462,9.3574,9.3755,9.374,9.392,9.3951,9.4014,9.4132,9.4083,9.4194,9.4187,9.43,9.4301,9.4479,9.4508,9.4519,9.4517,9.4523,9.4521,9.4563,9.4544,9.4509,9.4507,9.4505,9.4503,0,9.3595,9.3605,9.3799,9.3864,9.3884,9.4015,9.4071,9.4178,9.4194,9.4344,9.4378,9.4404,9.4535,9.4543,9.4695,9.4695,9.4911,9.4889,9.4884,9.488,9.5018,9.5005,9.5468,9.5527,9.513,9.5133,9.5136,0,9.3796,9.392,9.3999,9.4073,9.4118,9.4239,9.4312,9.4302,9.4381,9.4479,9.4574,9.4699,9.4799,9.5011,9.5044,9.516,9.5139,9.5294,9.5157,9.5158,9.514,9.5132,9.5144,9.532,9.5325,9.5328,9.5331,0,9.4153,9.4152,9.4258,9.4368,9.4457,9.4543,9.4623,9.4687,9.4686,9.4778,9.491,9.4987,9.5141,9.5266,9.5379,9.5421,9.5377,9.5374,9.5412,9.5419,9.541,9.5415,9.4956,9.5364,9.536,9.5358,9.5356,9.5355,9.441,9.4516,9.4588,9.4709,9.4767,9.4843,9.4946,9.4975,9.5085,9.5208,9.5196,9.5342,9.5417,9.5563,9.5615,9.5729,9.5677,9.5732,9.5746,9.576,9.5773,9.5393,9.575,9.5749,9.5748,9.5748,9.5747,0,9.4763,9.4805,9.4916,9.5029,9.5124,9.5073,9.5159,9.5242,9.5371,9.5444,9.5543,9.5695,9.5816,9.5859,9.5977,9.606,9.6043,9.6092,9.6085,9.6095,9.5814,9.5769,9.6104,9.6103,9.6103,9.6103,9.6103,9.6103,9.4957,9.5134,9.5142,9.5348,9.5389,9.5531,9.5584,9.5654,9.5712,9.5883,9.5983,9.6009,9.607,9.6192,9.6301,9.631,9.6356,9.6413,9.6414,9.6151,9.6115,9.608,9.6037,9.6423,9.6424,9.6684,9.6687,9.6688]},{"header":{"parameterUnit":"m.s-1","parameterCategory":1,"la1":30.2991,"la2":30.254,"lo1":-89.0895,"lo2":-89.0444,"dy":0.0017,"dx":0.0017,"nx":28,"ny":28,"refTime":"2025-03-04T09:00:00:Z","depth":0,"parameterNumber":3,"parameterNumberName":"V-component_of_WINDS"},"data":[0,0,0,0,0,0,0,0,0,0,0,0,0,0,0,0,0,0,0,0,0,0,0,0,0,0,0,0,0,0,0,0,0,0,0,0,0,0,0,0,0,0,0,0,0,0,0,0,0,0,0,0,0,0,0,0,0,0,1.1797,1.1798,0,1.1909,1.191,1.1912,1.1923,1.1922,1.192,1.1919,1.2037,1.2041,1.2045,0,0,0,0,0,0,0,0,0,0,0,0,0,1.1593,1.1597,1.1797,1.1798,1.1799,1.1909,1.191,1.1912,1.1923,1.1921,1.192,1.1919,1.2035,1.204,1.2045,0,0,0,0,0,0,0,0,0,0,0,0,0,1.1691,1.1598,1.1796,1.1818,1.1821,1.1908,1.191,1.1912,1.1923,1.1921,1.192,1.1918,1.2034,1.204,1.2046,1.212,0,0,1.2065,1.2068,0,0,0,0,0,0,0,0,1.1686,1.1699,1.1813,1.1817,1.182,1.19,1.1882,1.1982,1.1924,1.1885,1.1919,1.1917,1.1993,1.2002,1.2027,1.2126,1.2131,1.2066,1.207,1.2072,1.2074,0,0,0,0,0,0,0,1.1679,1.1694,1.1841,1.1815,1.1819,1.1823,1.1835,1.1901,1.1947,1.1888,1.1889,1.1902,1.1994,1.2021,1.203,1.2132,1.2066,1.2071,1.2075,1.2078,1.2297,1.2299,0,0,0,0,0,0,1.1668,1.1688,1.1838,1.1844,1.1747,1.1828,1.1841,1.1876,1.1946,1.1955,1.1903,1.1902,1.2011,1.2023,1.2034,1.2126,1.2072,1.2078,1.2082,1.2295,1.2298,1.23,0,0,0,0,0,0,1.1663,1.1681,1.1833,1.1767,1.1786,1.1833,1.1872,1.1879,1.1906,1.1958,1.1967,1.1922,1.201,1.2025,1.2099,1.213,1.2081,1.2087,1.2293,1.2296,1.2299,1.231,0,0,0,0,0,0,1.1657,1.1679,1.1708,1.1767,1.179,1.1895,1.1874,1.1883,1.1917,1.1916,1.1978,1.1987,1.201,1.2089,1.2105,1.2138,1.2092,1.229,1.2294,1.2298,1.2307,1.2313,1.2318,0,0,0,0,0,1.165,1.1707,1.1709,1.1727,1.1826,1.1897,1.191,1.1935,1.1919,1.1949,1.1982,1.1985,1.2124,1.2096,1.2114,1.215,1.2288,1.2293,1.2298,1.2305,1.2312,1.2318,0,0,0,0,0,0,1.1651,1.1715,1.1718,1.1796,1.1841,1.1898,1.1936,1.1942,1.1993,1.199,1.202,1.2034,1.2106,1.2135,1.2103,1.2225,1.2205,1.2213,1.2204,1.2211,1.2217,1.2209,1.2097,0,0,0,0,0,1.166,1.1711,1.1765,1.1828,1.185,1.1889,1.1921,1.1936,1.1984,1.2004,1.2042,1.2089,1.2144,1.2179,1.2232,1.2311,1.2325,1.2344,1.235,1.2354,1.2361,1.2406,1.2415,1.2315,1.2315,1.2315,0,0,1.1679,1.1721,1.1752,1.1829,1.1866,1.1919,1.1905,1.1962,1.2002,1.2013,1.2084,1.2114,1.2168,1.2245,1.228,1.2271,1.2392,1.236,1.2363,1.2368,1.2411,1.2421,1.2429,1.2318,1.2318,1.2317,0,0,1.1742,1.1778,1.1835,1.1872,1.1927,1.1952,1.1966,1.2023,1.2043,1.2114,1.2123,1.2171,1.2264,1.2303,1.2334,1.2411,1.2416,1.2427,1.2457,1.25,1.2507,1.2515,1.2542,1.2552,1.2434,1.2434,1.2434,0,1.176,1.184,1.1864,1.192,1.1954,1.1965,1.2023,1.2058,1.2127,1.2151,1.214,1.2256,1.2294,1.2379,1.2398,1.2423,1.244,1.2421,1.2504,1.2512,1.2519,1.2546,1.2556,1.2435,1.2435,1.2435,1.2435,0,1.1859,1.1914,1.1953,1.202,1.2058,1.2115,1.2148,1.2184,1.2196,1.2222,1.2295,1.234,1.2402,1.2424,1.2436,1.2511,1.2504,1.2498,1.2478,1.2529,1.2555,1.2565,1.2437,1.2436,1.2436,1.2436,0,0,1.1926,1.2004,1.2019,1.2049,1.211,1.2154,1.2211,1.2271,1.2301,1.2349,1.2398,1.2476,1.2471,1.2507,1.2523,1.256,1.2618,1.255,1.2552,1.2562,1.2705,1.2709,1.2721,1.2621,1.2623,1.2625,1.27,0,1.1997,1.2099,1.2122,1.221,1.2261,1.2272,1.2322,1.2365,1.2391,1.2439,1.2468,1.2523,1.2512,1.2533,1.2571,1.2603,1.2648,1.2598,1.2668,1.2671,1.2655,1.2734,1.274,1.2808,1.271,1.2712,1.2713,0,1.2093,1.2142,1.2235,1.2289,1.2311,1.2356,1.2412,1.2458,1.2507,1.2523,1.2563,1.2575,1.2636,1.2612,1.2696,1.2662,1.2691,1.2712,1.2715,1.2724,1.2696,1.2746,1.2831,1.2841,1.2729,1.2728,1.2727,0,1.2134,1.2223,1.229,1.2315,1.238,1.2411,1.2439,1.2487,1.2521,1.2571,1.2593,1.2649,1.268,1.2724,1.2751,1.2731,1.2833,1.2811,1.2849,1.2849,1.2871,1.287,1.2964,1.2889,1.2889,1.2889,1.2888,0,1.221,1.2267,1.2309,1.2351,1.2414,1.244,1.2503,1.2531,1.2573,1.262,1.2633,1.2677,1.271,1.2759,1.2781,1.2847,1.2861,1.2877,1.2882,1.2876,1.2874,1.2897,1.2893,1.2891,1.2891,1.289,1.289,0,1.2267,1.2298,1.2372,1.2426,1.2441,1.2486,1.2533,1.2574,1.26,1.266,1.2675,1.2716,1.2774,1.2805,1.2879,1.2893,1.2968,1.297,1.2951,1.2954,1.299,1.2987,1.3103,1.312,1.3033,1.3034,1.3034,0,1.2315,1.2359,1.2418,1.245,1.2479,1.2531,1.2566,1.2592,1.2628,1.2687,1.2721,1.278,1.2828,1.2921,1.2958,1.3014,1.3018,1.3055,1.3027,1.3019,1.3019,1.3017,1.3021,1.306,1.3061,1.3061,1.3062,0,1.2396,1.2409,1.2458,1.2513,1.2554,1.2599,1.2643,1.2669,1.2703,1.2743,1.2802,1.284,1.2914,1.2972,1.3031,1.3061,1.3068,1.307,1.3082,1.3077,1.3065,1.3073,1.2966,1.3068,1.3067,1.3067,1.3066,1.3066,1.245,1.249,1.2537,1.2592,1.2628,1.2669,1.2709,1.274,1.279,1.2852,1.2865,1.2927,1.2975,1.3055,1.3086,1.3136,1.3128,1.3146,1.315,1.3154,1.3156,1.3056,1.3146,1.3146,1.3146,1.3146,1.3146,0,1.2533,1.2563,1.2613,1.2674,1.2718,1.2719,1.2768,1.2804,1.2859,1.2902,1.295,1.3018,1.3074,1.3115,1.3172,1.3204,1.3209,1.3219,1.3217,1.3224,1.3159,1.3143,1.3214,1.3214,1.3214,1.3214,1.3214,1.3214,1.2581,1.2647,1.2665,1.275,1.278,1.2842,1.2869,1.2907,1.2942,1.3017,1.3064,1.309,1.3133,1.3193,1.3245,1.3256,1.3277,1.3286,1.3297,1.3236,1.3229,1.3222,1.3207,1.329,1.329,1.3358,1.3359,1.3359]}]]